Regional Weather Roundup
Issued by NWS

Home | Current Version | Previous Version | Graphics & Text | Print | Product List | Glossary On
Versions: 1 2 3 4 5 6 7 8 9 10 11 12 13 14 15 16 17 18 19 20 21 22 23 24 25 26 27 28 29 30 31 32 33 34 35 36 37 38 39 40 41 42 43 44 45 46 47 48 49 50
000
ASUS43 KBIS 250810
RWRND

NORTH DAKOTA REGIONAL WEATHER ROUNDUP
NATIONAL WEATHER SERVICE BISMARCK ND
300 AM CDT SAT MAR 25 2017

NOTE: "FAIR" INDICATES FEW OR NO CLOUDS BELOW 12,000 FEET WITH NO
SIGNIFICANT WEATHER AND/OR OBSTRUCTIONS TO VISIBILITY.


NDZ001>003-009>011-017-250900-
NORTHWEST NORTH DAKOTA

CITY           SKY/WX    TMP DP  RH WIND       PRES   REMARKS
WILLISTON      FAIR      43  32  65 S12G21    29.89F
MINOT          CLOUDY    32  30  92 SE13      30.04F
MINOT AFB      CLOUDY    30  29  96 SE15      30.04F WCI  19
$$

NDZ018>021-031>035-040>046-250900-
SOUTHWEST NORTH DAKOTA

CITY           SKY/WX    TMP DP  RH WIND       PRES   REMARKS
BISMARCK       MOCLDY    30  27  88 E5        30.12F
DICKINSON      FAIR      36  31  82 SE20      29.94F
GARRISON         N/A     29  28  96 SE13      30.05F WCI  19
HETTINGER ARPT CLOUDY    36  31  82 SE15G23   29.99F
$$

NDZ004>008-012>016-024-026-027-054-250900-
NORTHEAST NORTH DAKOTA

CITY           SKY/WX    TMP DP  RH WIND       PRES   REMARKS
GRAND FORKS    CLEAR     29  28  96 NW3       30.21S
GRND FRKS AFB  CLEAR     27  25  93 CALM      30.19F FOG
DEVILS LAKE    FAIR      28  26  92 S8        30.17F WCI  20
$$

NDZ022-023-025-028>030-036>039-047>053-250900-
SOUTHEAST NORTH DAKOTA

CITY           SKY/WX    TMP DP  RH WIND       PRES   REMARKS
FARGO          CLEAR     27  26  96 CALM      30.20F
JAMESTOWN      FAIR      27  26  96 SE3       30.15F
$$





USA.gov is the U.S. government's official web portal to all federal, state and local government web resources and services.